Weather in Mikhaylovskoye

Russia / Ivanovo Oblast     57°09′54″N   41°37′48″E
temp.,
°C
wind,
m/s
gust,
m/s
humid.,
%
clouds,
%
prec.,
mm/h
press.,
hPa
HPBL,
m
25 february, thu
thu2500:00−16s51094100 0.4 1028436
03:00−16s61096100 1.4 1025431
06:00−16s71295100 2.0 1018477
09:00−14s51095100 4.5 1014472
12:00−11sse5794100 1.4 1012339
15:00−8se2393100 1.9 1011256
18:00−9ese239699 0.3 101140
21:00−10se229693 0.4 101249
26 february, fri
fri2600:00−8se2296100 0.4 101171
03:00−8ese3496100 0.7 1011119
06:00−8se4596100 0.3 1009133
09:00−7ese5796100 1.6 1007177
12:00−5se5996100 1.6 1002214
15:00+1s48100100 6.8 999250
18:00+2w71599100 4.9 996626
21:000w6129798 4.9 995654
27 february, sat
sat2700:000w5998100 0.4 993467
03:000w61198100 1.7 994589
06:00−2wnw61095100 0.9 994487
09:00−5nnw479696 1.3 997356
12:00−9nne6993100 1.0 1000536
15:00−10nne6990100 1.4 1003667
18:00−12n51091100 0.1 1006576
21:00−15n41093100 0.1 1010324
28 february, sun
sun2800:00−18n489630 0.0 1011180
03:00−19n489615 0.0 1014160
06:00−20nnw36970 0.0 1015117
09:00−18nnw46940 0.0 1017235
12:00−13nnw359133 0.0 1017355
15:00−11nnw469060 0.0 1018482
18:00−9n4992100 0.1 1018465
21:00−12n349478 0.1 102153
1 march, mon
mon100:00−12n239694 0.1 102332
03:00−13nnw129793 0.1 102421
06:00−13nw239896 0.0 102522
09:00−11wnw239681 0.1 1025101
12:00−5wsw359274 0.0 1024327
15:00−3wsw489287 0.0 1022457
18:00−2wsw5119699 0.1 1020532
21:00−1wsw6129599 0.3 1016546